TimeEDT,TemperatureF,Dew PointF,Humidity,Sea Level PressureIn,VisibilityMPH,Wind Direction,Wind SpeedMPH,Gust SpeedMPH,PrecipitationIn,Events,Conditions,WindDirDegrees,DateUTC
12:53 AM,70.0,66.0,87,30.08,4.0,SSW,5.8,-,N/A,,Clear,200,2013-08-22 04:53:00
1:53 AM,69.1,64.9,87,30.06,3.0,SW,5.8,-,N/A,,Clear,220,2013-08-22 05:53:00
2:53 AM,68.0,64.0,87,30.06,4.0,SW,5.8,-,N/A,,Clear,220,2013-08-22 06:53:00
3:53 AM,66.0,62.1,87,30.05,7.0,SW,5.8,-,N/A,,Clear,220,2013-08-22 07:53:00
4:53 AM,66.0,62.1,87,30.04,8.0,SW,5.8,-,N/A,,Clear,220,2013-08-22 08:53:00
5:53 AM,66.9,63.0,87,30.03,8.0,SW,5.8,-,N/A,,Clear,220,2013-08-22 09:53:00
6:53 AM,68.0,64.0,87,30.02,6.0,SW,6.9,-,N/A,,Clear,220,2013-08-22 10:53:00
7:53 AM,70.0,64.9,84,30.04,7.0,SW,6.9,-,N/A,,Clear,230,2013-08-22 11:53:00
8:53 AM,72.0,66.0,81,30.07,8.0,West,6.9,-,N/A,,Overcast,270,2013-08-22 12:53:00
9:53 AM,73.0,66.9,81,30.07,8.0,Calm,Calm,-,0.00,,Overcast,0,2013-08-22 13:53:00
10:53 AM,75.0,68.0,79,30.06,9.0,SW,5.8,-,N/A,,Scattered Clouds,220,2013-08-22 14:53:00
11:53 AM,81.0,68.0,65,30.06,10.0,West,4.6,-,N/A,,Clear,260,2013-08-22 15:53:00
12:53 PM,82.9,69.1,63,30.05,10.0,Variable,5.8,-,N/A,,Partly Cloudy,0,2013-08-22 16:53:00
1:53 PM,81.0,69.1,67,30.04,9.0,North,9.2,-,N/A,,Mostly Cloudy,350,2013-08-22 17:53:00
2:53 PM,84.0,69.1,61,30.02,10.0,Variable,5.8,-,N/A,,Scattered Clouds,0,2013-08-22 18:53:00
3:53 PM,84.0,69.1,61,30.01,10.0,NW,5.8,-,N/A,,Scattered Clouds,310,2013-08-22 19:53:00
4:53 PM,81.0,68.0,65,30.00,10.0,NNW,5.8,-,N/A,,Clear,340,2013-08-22 20:53:00
5:53 PM,79.0,66.9,66,30.01,10.0,NNW,6.9,-,N/A,,Partly Cloudy,340,2013-08-22 21:53:00
6:53 PM,78.1,66.9,68,30.01,10.0,NNW,5.8,-,N/A,,Partly Cloudy,340,2013-08-22 22:53:00
7:53 PM,75.9,68.0,76,30.01,10.0,NW,5.8,-,N/A,,Clear,320,2013-08-22 23:53:00
8:53 PM,75.9,68.0,76,30.02,10.0,NW,6.9,-,N/A,,Scattered Clouds,320,2013-08-23 00:53:00
9:53 PM,75.0,66.9,76,30.01,10.0,North,5.8,-,N/A,,Partly Cloudy,350,2013-08-23 01:53:00
10:53 PM,73.9,68.0,82,30.01,10.0,Calm,Calm,-,N/A,,Clear,0,2013-08-23 02:53:00
11:53 PM,72.0,68.0,87,30.03,9.0,West,4.6,-,N/A,,Clear,260,2013-08-23 03:53:00